Location: Bannatyne
(13.0833°N, 59.5333°W)
Time: 04:02:11
(UTC+00:00)

Atlas Centaur 2 - Pass Details

Date: 18 October 2019
Orbit: 459 x 1311 km, 30.4° (Epoch: 13 November)

Event Time Altitude Azimuth Distance (km) Brightness Sun altitude
Rises 22:29:55 0° 296° (WNW) 3,813 6.6 -13.4°
Reaches altitude 10° 22:32:56 10° 295° (WNW) 2,720 5.8 -14.2°
Maximum altitude 22:39:24 71° 212° (SSW) 852 2.3 -15.7°
Enters shadow 22:43:23 17° 130° (SE) 1,759 3.5 -16.7°
